[[{"header":{"parameterUnit":"m.s-1","parameterCategory":1,"la1":30.2991,"la2":30.254,"lo1":-89.0895,"lo2":-89.0444,"dy":0.0017,"dx":0.0017,"nx":28,"ny":28,"refTime":"2023-06-18T21:00:00:Z","depth":0,"parameterNumber":2,"parameterNumberName":"U-component_of_WINDS"},"data":[0,0,0,0,0,0,0,0,0,0,0,0,0,0,0,0,0,0,0,0,0,0,0,0,0,0,0,0,0,0,0,0,0,0,0,0,0,0,0,0,0,0,0,0,0,0,0,0,0,0,0,0,0,0,0,0,0,0,2.7406,2.7406,0,2.7409,2.7409,2.7409,2.7427,2.7428,2.7428,2.7429,2.7434,2.7434,2.7434,0,0,0,0,0,0,0,0,0,0,0,0,0,2.7419,2.7418,2.7406,2.7406,2.7406,2.7409,2.7409,2.7409,2.7427,2.7428,2.7428,2.7429,2.7434,2.7434,2.7434,0,0,0,0,0,0,0,0,0,0,0,0,0,2.7417,2.7418,2.7406,2.7415,2.7416,2.7409,2.7409,2.7409,2.7427,2.7428,2.7428,2.7429,2.7434,2.7434,2.7433,2.7419,0,0,2.7432,2.7432,0,0,0,0,0,0,0,0,2.7417,2.7416,2.7414,2.7414,2.7415,2.7418,2.7416,2.7413,2.7427,2.7423,2.7429,2.7429,2.7428,2.7429,2.7428,2.7419,2.7419,2.7432,2.7432,2.7432,2.7432,0,0,0,0,0,0,0,2.7417,2.7416,2.7407,2.7414,2.7415,2.7421,2.7421,2.7415,2.7422,2.7423,2.7425,2.7425,2.7429,2.7428,2.7428,2.7419,2.7432,2.7432,2.7432,2.7432,2.7402,2.7402,0,0,0,0,0,0,2.7415,2.7416,2.7407,2.7407,2.7418,2.742,2.742,2.7417,2.7422,2.7424,2.7424,2.7426,2.7429,2.7429,2.7428,2.7413,2.7432,2.7432,2.7431,2.7403,2.7402,2.7401,0,0,0,0,0,0,2.7415,2.7414,2.7407,2.7412,2.7412,2.7419,2.7415,2.7417,2.7416,2.7423,2.7425,2.7422,2.7429,2.7429,2.7422,2.7413,2.7431,2.7431,2.7403,2.7402,2.7402,2.738,0,0,0,0,0,0,2.7416,2.7414,2.7407,2.7412,2.7411,2.7398,2.7414,2.7416,2.7415,2.7417,2.7421,2.7422,2.743,2.7422,2.7421,2.7413,2.7431,2.7404,2.7403,2.7402,2.7382,2.7379,2.7376,0,0,0,0,0,2.7416,2.74,2.7406,2.7405,2.7402,2.7397,2.7397,2.7405,2.7414,2.7408,2.7414,2.7422,2.7415,2.7421,2.742,2.7412,2.7405,2.7403,2.7402,2.7383,2.7379,2.7376,0,0,0,0,0,0,2.7393,2.7401,2.7408,2.7393,2.7395,2.74,2.7392,2.7401,2.74,2.7402,2.7413,2.7414,2.7405,2.7409,2.7415,2.74,2.7412,2.741,2.7397,2.7394,2.7391,2.739,2.743,0,0,0,0,0,2.7387,2.7381,2.7389,2.7375,2.7376,2.7384,2.7382,2.7389,2.7391,2.7392,2.7397,2.7399,2.7398,2.7397,2.7396,2.7384,2.7386,2.7378,2.7375,2.7373,2.7371,2.7368,2.7364,2.7397,2.7397,2.7397,0,0,2.7373,2.7376,2.7372,2.7371,2.7373,2.7368,2.7384,2.7378,2.7376,2.7391,2.7384,2.7389,2.7393,2.7384,2.738,2.7386,2.7363,2.7371,2.737,2.7369,2.7366,2.7363,2.736,2.7396,2.7396,2.7397,0,0,2.7344,2.7346,2.7336,2.7339,2.7342,2.7349,2.7347,2.7352,2.7356,2.735,2.7362,2.7361,2.7357,2.7361,2.7362,2.7341,2.735,2.7341,2.7325,2.7322,2.7319,2.7317,2.731,2.7308,2.7339,2.7339,2.7339,0,2.7326,2.7318,2.733,2.7323,2.7324,2.734,2.733,2.7333,2.7336,2.7337,2.7344,2.7343,2.7346,2.7339,2.7335,2.7335,2.7334,2.7338,2.7319,2.7317,2.7315,2.7309,2.7306,2.7338,2.7338,2.7338,2.7338,0,2.7297,2.7292,2.7284,2.7287,2.7287,2.7279,2.7291,2.729,2.7299,2.7305,2.7301,2.7307,2.7308,2.7308,2.7315,2.7303,2.7307,2.7317,2.7328,2.731,2.7305,2.7302,2.7336,2.7337,2.7337,2.7337,0,0,2.7248,2.7262,2.7258,2.7262,2.7269,2.7266,2.7262,2.7264,2.7264,2.7267,2.7264,2.7264,2.7274,2.7276,2.7285,2.7282,2.7267,2.7292,2.7292,2.7287,2.7256,2.7247,2.7244,2.7274,2.7274,2.7273,2.7255,0,2.7221,2.7211,2.7224,2.7213,2.721,2.7228,2.7225,2.723,2.7238,2.7238,2.7248,2.7247,2.726,2.7261,2.726,2.7269,2.726,2.7271,2.7272,2.7272,2.7268,2.7241,2.7231,2.7213,2.7253,2.7253,2.7252,0,2.7186,2.7189,2.7177,2.7189,2.7189,2.7185,2.719,2.719,2.7198,2.7205,2.7209,2.7221,2.722,2.7233,2.7233,2.7239,2.7242,2.7247,2.7247,2.7246,2.7259,2.7238,2.7208,2.7204,2.7249,2.7249,2.725,0,2.7152,2.7153,2.7147,2.7149,2.7163,2.7161,2.7167,2.7176,2.7178,2.7184,2.7185,2.7191,2.7194,2.7199,2.7213,2.7221,2.7212,2.7226,2.7218,2.7217,2.7212,2.7212,2.718,2.7216,2.7216,2.7216,2.7216,0,2.7118,2.711,2.7132,2.7128,2.7121,2.7138,2.7131,2.714,2.7149,2.7149,2.7166,2.7166,2.7185,2.7188,2.72,2.7199,2.72,2.7206,2.7209,2.7203,2.7202,2.7203,2.7204,2.7216,2.7216,2.7216,2.7216,0,2.7076,2.7091,2.7085,2.7101,2.7105,2.7099,2.7113,2.7112,2.7123,2.7123,2.7124,2.7141,2.7146,2.7162,2.717,2.7179,2.7174,2.718,2.717,2.7172,2.7163,2.7163,2.7129,2.7126,2.7165,2.7165,2.7164,0,2.7052,2.7047,2.7063,2.7064,2.707,2.7071,2.7074,2.7093,2.7095,2.7108,2.7105,2.7112,2.7117,2.7125,2.7139,2.7147,2.7153,2.7141,2.7154,2.715,2.7152,2.7152,2.7152,2.7137,2.7136,2.7136,2.7135,0,2.7008,2.7017,2.702,2.7027,2.7031,2.7037,2.7044,2.7045,2.7066,2.7069,2.7074,2.7079,2.709,2.7096,2.7107,2.7116,2.713,2.7132,2.7131,2.7123,2.7118,2.7121,2.7161,2.7132,2.7132,2.7132,2.7133,2.7133,2.6974,2.6971,2.6983,2.6987,2.6996,2.7004,2.7004,2.7017,2.7022,2.7031,2.7043,2.7048,2.7062,2.7078,2.7086,2.7092,2.7099,2.7096,2.7095,2.7094,2.7092,2.7119,2.7094,2.7094,2.7094,2.7094,2.7094,0,2.693,2.6941,2.6945,2.6956,2.696,2.6975,2.6986,2.6989,2.6992,2.7004,2.7011,2.7019,2.7027,2.7045,2.7055,2.7056,2.7063,2.7058,2.7057,2.706,2.7085,2.7085,2.7053,2.7053,2.7053,2.7053,2.7053,2.7053,2.6908,2.6905,2.6916,2.6919,2.693,2.6934,2.694,2.6948,2.6958,2.6967,2.6974,2.6986,2.7001,2.7014,2.7023,2.7028,2.7031,2.7024,2.7031,2.7053,2.7057,2.7061,2.7061,2.7025,2.7025,2.7005,2.7005,2.7005]},{"header":{"parameterUnit":"m.s-1","parameterCategory":1,"la1":30.2991,"la2":30.254,"lo1":-89.0895,"lo2":-89.0444,"dy":0.0017,"dx":0.0017,"nx":28,"ny":28,"refTime":"2023-06-18T21:00:00:Z","depth":0,"parameterNumber":3,"parameterNumberName":"V-component_of_WINDS"},"data":[0,0,0,0,0,0,0,0,0,0,0,0,0,0,0,0,0,0,0,0,0,0,0,0,0,0,0,0,0,0,0,0,0,0,0,0,0,0,0,0,0,0,0,0,0,0,0,0,0,0,0,0,0,0,0,0,0,0,4.0287,4.029,0,4.055,4.0553,4.0556,4.0653,4.0652,4.0651,4.065,4.0917,4.0925,4.0932,0,0,0,0,0,0,0,0,0,0,0,0,0,3.9863,3.987,4.0287,4.029,4.0293,4.055,4.0554,4.0557,4.0653,4.0652,4.0651,4.065,4.0914,4.0924,4.0933,0,0,0,0,0,0,0,0,0,0,0,0,0,4.0079,3.9873,4.0286,4.0372,4.0382,4.0549,4.0554,4.0558,4.0653,4.0652,4.065,4.0649,4.0911,4.0923,4.0934,4.1034,0,0,4.0971,4.0976,0,0,0,0,0,0,0,0,4.0066,4.0094,4.0356,4.0366,4.0378,4.0567,4.0502,4.0718,4.0653,4.055,4.065,4.0648,4.0801,4.0822,4.0875,4.1047,4.1058,4.0972,4.0979,4.0984,4.0987,0,0,0,0,0,0,0,4.0051,4.0083,4.0391,4.036,4.0373,4.0396,4.0425,4.0543,4.068,4.0559,4.0567,4.0597,4.0807,4.0863,4.0881,4.1062,4.0971,4.0982,4.0989,4.0994,4.1329,4.1331,0,0,0,0,0,0,4.0022,4.007,4.0383,4.0399,4.0216,4.0405,4.0438,4.0508,4.0679,4.0704,4.0597,4.06,4.0843,4.0867,4.0891,4.1019,4.0984,4.0995,4.1002,4.1327,4.1329,4.1331,0,0,0,0,0,0,4.0013,4.0049,4.0372,4.0237,4.028,4.0414,4.0492,4.0514,4.057,4.0708,4.0733,4.063,4.0843,4.0874,4.0998,4.103,4.1001,4.1011,4.1325,4.1328,4.133,4.1276,0,0,0,0,0,0,4.0,4.0045,4.0086,4.0237,4.0287,4.0475,4.0494,4.052,4.059,4.0596,4.0745,4.0768,4.0844,4.098,4.101,4.1046,4.1021,4.1323,4.1326,4.1329,4.1275,4.1276,4.1277,0,0,0,0,0,3.9985,4.0059,4.0087,4.0124,4.034,4.0477,4.0505,4.0593,4.0592,4.0633,4.0722,4.0763,4.1021,4.0992,4.1026,4.1066,4.1321,4.1325,4.1329,4.1275,4.1276,4.1277,0,0,0,0,0,0,3.9907,4.0081,4.0114,4.0239,4.0343,4.0493,4.0547,4.0591,4.0696,4.0697,4.08,4.0833,4.0948,4.102,4.0984,4.1171,4.1174,4.1185,4.1121,4.1123,4.1124,4.1104,4.1031,0,0,0,0,0,3.9905,4.0003,4.0149,4.0245,4.0296,4.0412,4.0475,4.0534,4.0645,4.0689,4.0787,4.0892,4.0997,4.1064,4.1168,4.1286,4.1319,4.133,4.1331,4.1331,4.1339,4.1406,4.1413,4.1344,4.1344,4.1344,0,0,3.99,4.0007,4.0063,4.0232,4.032,4.0418,4.0449,4.0551,4.0625,4.0704,4.0827,4.0902,4.1027,4.1147,4.1206,4.121,4.1365,4.1336,4.1335,4.1344,4.1411,4.1417,4.1423,4.1347,4.1346,4.1346,0,0,3.9943,4.0034,4.0124,4.0211,4.0343,4.042,4.0441,4.0585,4.0639,4.0764,4.0825,4.0913,4.1092,4.1178,4.1245,4.1319,4.136,4.135,4.1354,4.1418,4.1424,4.1429,4.1455,4.1463,4.1358,4.1358,4.1358,0,3.9921,4.0072,4.0165,4.0265,4.0337,4.0414,4.0506,4.0585,4.0743,4.0791,4.0795,4.102,4.1109,4.1251,4.1269,4.1321,4.1348,4.1334,4.1415,4.1422,4.1428,4.1454,4.1463,4.1355,4.1356,4.1356,4.1356,0,4.0038,4.0142,4.0199,4.0351,4.043,4.0525,4.0631,4.0699,4.075,4.0826,4.0952,4.1062,4.1189,4.1227,4.1278,4.1376,4.1375,4.1395,4.14,4.1431,4.1457,4.1467,4.1352,4.1353,4.1354,4.1354,0,0,4.0039,4.0241,4.026,4.033,4.0481,4.0563,4.066,4.0786,4.0842,4.0948,4.1033,4.1182,4.1202,4.1277,4.1339,4.1395,4.1446,4.1409,4.1413,4.1411,4.156,4.1543,4.1553,4.1474,4.1476,4.1478,4.1549,0,4.0101,4.0281,4.0367,4.0508,4.0605,4.0679,4.0765,4.0865,4.0939,4.1031,4.1112,4.1216,4.1234,4.128,4.1339,4.1427,4.1477,4.1423,4.1552,4.1556,4.1519,4.1567,4.155,4.1612,4.156,4.1562,4.1563,0,4.0197,4.0304,4.0455,4.0595,4.0638,4.0713,4.0835,4.0923,4.1038,4.1087,4.1172,4.1231,4.1335,4.1332,4.1477,4.1439,4.1496,4.1547,4.1552,4.1567,4.1561,4.1583,4.1634,4.1643,4.158,4.1579,4.1577,0,4.0182,4.0364,4.0478,4.0535,4.07,4.0751,4.0822,4.0937,4.1006,4.1112,4.1159,4.1275,4.1338,4.1426,4.1515,4.1504,4.1651,4.1655,4.1694,4.1692,4.1722,4.1718,4.1782,4.1758,4.1758,4.1758,4.1758,0,4.0242,4.0331,4.0473,4.0543,4.0645,4.0743,4.0841,4.0917,4.1018,4.1103,4.1174,4.1252,4.1365,4.1457,4.1526,4.1636,4.1664,4.1706,4.1723,4.17,4.1694,4.1739,4.1737,4.1761,4.176,4.176,4.1759,0,4.0242,4.0341,4.047,4.0616,4.0655,4.0723,4.0848,4.0918,4.0995,4.1102,4.1132,4.1253,4.1365,4.1462,4.1609,4.1656,4.1768,4.179,4.1729,4.1739,4.1772,4.1768,4.1867,4.1885,4.1848,4.1849,4.1849,0,4.0274,4.0345,4.0498,4.0561,4.0631,4.0731,4.0803,4.0901,4.0973,4.111,4.1163,4.128,4.138,4.1555,4.1655,4.1768,4.1792,4.1819,4.1809,4.1783,4.1792,4.1787,4.1794,4.1819,4.1819,4.1819,4.1819,0,4.0319,4.0365,4.0466,4.0585,4.0669,4.0766,4.0866,4.0913,4.103,4.1106,4.1222,4.1299,4.145,4.1565,4.1689,4.1761,4.1809,4.1821,4.1836,4.1812,4.1775,4.1795,4.173,4.1818,4.1818,4.1818,4.1818,4.1818,4.0336,4.0403,4.0521,4.0632,4.0717,4.0808,4.0882,4.0968,4.1067,4.1198,4.125,4.1368,4.1481,4.1653,4.1724,4.1817,4.1825,4.1847,4.1852,4.1856,4.1852,4.176,4.184,4.184,4.1841,4.1841,4.1841,0,4.0385,4.0465,4.0566,4.0704,4.079,4.0829,4.0941,4.101,4.1114,4.1216,4.1312,4.1445,4.1557,4.1666,4.1783,4.1837,4.1861,4.1864,4.1861,4.1877,4.1839,4.1814,4.1842,4.1842,4.1842,4.1842,4.1842,4.1842,4.0421,4.0535,4.0594,4.075,4.083,4.0947,4.1008,4.1092,4.1174,4.132,4.1414,4.1484,4.1589,4.1714,4.1819,4.1848,4.1887,4.1884,4.1918,4.1881,4.1879,4.1878,4.1855,4.1892,4.1892,4.1949,4.195,4.195]}]]